,,,PA_Meas_PMT16A,,PR_Meas_QMR101_102,,RH_Meas_QMH101,,SR_Meas_QMS101,,TA_Meas_QMH101,,GenWind,,GenWind,
date,time,status,PA,status,PR,status,RH,status,SR,status,TA,status,DirAvg,status,SpdAvg,
2012-05-29, 00:00:04,VALID,1009.23,VALID,0,VALID,104,VALID,0,VALID,23.733,VALID,278,VALID,0,
2012-05-29, 00:01:04,VALID,1009.23,VALID,0,VALID,104,VALID,0,VALID,23.733,VALID,278,VALID,0,
2012-05-29, 00:02:04,VALID,1009.24,VALID,0,VALID,104,VALID,0,VALID,23.7525,VALID,278,VALID,0,
2012-05-29, 00:03:04,VALID,1009.24,VALID,0,VALID,104,VALID,0,VALID,23.7525,VALID,278,VALID,0,
2012-05-29, 00:04:04,VALID,1009.23,VALID,0,VALID,104,VALID,0,VALID,23.733,VALID,278,VALID,0,
2012-05-29, 00:05:04,VALID,1009.19,VALID,0,VALID,104,VALID,0,VALID,23.733,VALID,278,VALID,0,
2012-05-29, 00:06:04,VALID,1009.2,VALID,0,VALID,104,VALID,0,VALID,23.6922,VALID,278,VALID,0,
2012-05-29, 00:07:04,VALID,1009.2,VALID,0,VALID,104,VALID,0,VALID,23.7135,VALID,278,VALID,0,
2012-05-29, 00:08:04,VALID,1009.2,VALID,0,VALID,104,VALID,0,VALID,23.7135,VALID,278,VALID,0,
2012-05-29, 00:09:04,VALID,1009.17,VALID,0,VALID,104,VALID,0,VALID,23.7135,VALID,278,VALID,0.178516,
2012-05-29, 00:10:04,VALID,1009.16,VALID,0,VALID,104,VALID,0,VALID,23.6745,VALID,278,VALID,0,
2012-05-29, 00:11:04,VALID,1009.15,VALID,0,VALID,104,VALID,0,VALID,23.6745,VALID,278,VALID,0.0105469,
2012-05-29, 00:12:04,VALID,1009.15,VALID,0,VALID,104,VALID,0,VALID,23.6532,VALID,278,VALID,0,
2012-05-29, 00:13:04,VALID,1009.15,VALID,0,VALID,104,VALID,0,VALID,23.6745,VALID,278,VALID,0.00429688,
2012-05-29, 00:14:04,VALID,1009.15,VALID,0,VALID,104,VALID,0,VALID,23.655,VALID,278,VALID,0,
2012-05-29, 00:15:04,VALID,1009.1,VALID,0,VALID,104,VALID,0,VALID,23.6356,VALID,278,VALID,0,
2012-05-29, 00:16:04,VALID,1009.09,VALID,0,VALID,104,VALID,0,VALID,23.6143,VALID,278,VALID,0,
2012-05-29, 00:17:04,VALID,1009.06,VALID,0,VALID,104,VALID,0,VALID,23.6161,VALID,278,VALID,0,
2012-05-29, 00:18:04,VALID,1009.07,VALID,0,VALID,104,VALID,0,VALID,23.6161,VALID,278,VALID,0,
2012-05-29, 00:19:04,VALID,1009.03,VALID,0,VALID,104,VALID,0,VALID,23.6161,VALID,278,VALID,0,
2012-05-29, 00:20:04,VALID,1009.02,VALID,0,VALID,104,VALID,0,VALID,23.5966,VALID,278,VALID,0,
2012-05-29, 00:21:04,VALID,1008.99,VALID,0,VALID,104,VALID,0,VALID,23.6161,VALID,278,VALID,0,
2012-05-29, 00:22:04,VALID,1008.99,VALID,0,VALID,104,VALID,0,VALID,23.5966,VALID,278,VALID,0,
2012-05-29, 00:23:04,VALID,1008.98,VALID,0,VALID,104,VALID,0,VALID,23.5966,VALID,278,VALID,0,
2012-05-29, 00:24:04,VALID,1008.97,VALID,0,VALID,104,VALID,0,VALID,23.5771,VALID,278,VALID,0,
2012-05-29, 00:25:04,VALID,1008.96,VALID,0,VALID,104,VALID,0,VALID,23.5771,VALID,278,VALID,0,
2012-05-29, 00:26:04,VALID,1009.01,VALID,0,VALID,104,VALID,0,VALID,23.5771,VALID,278,VALID,0.353516,
2012-05-29, 00:27:04,VALID,1009.01,VALID,0,VALID,104,VALID,0,VALID,23.5771,VALID,278,VALID,0.2375,
2012-05-29, 00:28:04,VALID,1008.98,VALID,0,VALID,104,VALID,0,VALID,23.5771,VALID,278,VALID,0.251563,
2012-05-29, 00:29:04,VALID,1008.98,VALID,0,VALID,104,VALID,0,VALID,23.5576,VALID,278,VALID,0.248047,
2012-05-29, 00:30:04,VALID,1008.97,VALID,0,VALID,104,VALID,0,VALID,23.5771,VALID,278,VALID,0.204297,
2012-05-29, 00:31:04,VALID,1008.95,VALID,0,VALID,104,VALID,0,VALID,23.5363,VALID,278,VALID,0.341016,
2012-05-29, 00:32:04,VALID,1008.95,VALID,0,VALID,104,VALID,0,VALID,23.5576,VALID,278,VALID,0,
2012-05-29, 00:33:04,VALID,1008.95,VALID,0,VALID,104,VALID,0,VALID,23.5576,VALID,278,VALID,0,
2012-05-29, 00:34:04,VALID,1008.91,VALID,0,VALID,104,VALID,0,VALID,23.5381,VALID,278,VALID,0,
2012-05-29, 00:35:04,VALID,1008.9,VALID,0,VALID,104,VALID,0,VALID,23.5381,VALID,278,VALID,0,
2012-05-29, 00:36:04,VALID,1008.89,VALID,0,VALID,104,VALID,0,VALID,23.5186,VALID,278,VALID,0,
2012-05-29, 00:37:04,VALID,1008.88,VALID,0,VALID,104,VALID,0,VALID,23.4797,VALID,278,VALID,0,
2012-05-29, 00:38:04,VALID,1008.88,VALID,0,VALID,104,VALID,0,VALID,23.4797,VALID,278,VALID,0,
2012-05-29, 00:39:04,VALID,1008.87,VALID,0,VALID,104,VALID,0,VALID,23.4797,VALID,278,VALID,0,
2012-05-29, 00:40:04,VALID,1008.87,VALID,0,VALID,104,VALID,0,VALID,23.4602,VALID,278,VALID,0,
2012-05-29, 00:41:04,VALID,1008.87,VALID,0,VALID,104,VALID,0,VALID,23.4602,VALID,278,VALID,0,
2012-05-29, 00:42:04,VALID,1008.83,VALID,0,VALID,104,VALID,0,VALID,23.4407,VALID,278,VALID,0,
2012-05-29, 00:43:04,VALID,1008.84,VALID,0,VALID,104,VALID,0,VALID,23.462,VALID,278,VALID,0,
2012-05-29, 00:44:04,VALID,1008.84,VALID,0,VALID,104,VALID,0,VALID,23.4212,VALID,278,VALID,0,
2012-05-29, 00:45:04,VALID,1008.82,VALID,0,VALID,104,VALID,0,VALID,23.4407,VALID,276,VALID,0.0570313,
2012-05-29, 00:46:04,VALID,1008.83,VALID,0,VALID,104,VALID,0,VALID,23.4212,VALID,275,VALID,0.321094,
2012-05-29, 00:47:04,VALID,1008.83,VALID,0,VALID,104,VALID,0,VALID,23.4017,VALID,334,VALID,0.213281,
2012-05-29, 00:48:04,VALID,1008.86,VALID,0,VALID,104,VALID,0,VALID,23.4017,VALID,27,VALID,0.446484,
2012-05-29, 00:49:04,VALID,1008.89,VALID,0,VALID,104,VALID,0,VALID,23.4017,VALID,27,VALID,0.6125,
2012-05-29, 00:50:04,VALID,1008.92,VALID,0,VALID,104,VALID,0,VALID,23.3805,VALID,27,VALID,0.646875,
2012-05-29, 00:51:04,VALID,1008.96,VALID,0,VALID,104,VALID,0,VALID,23.4017,VALID,47,VALID,0.321094,
2012-05-29, 00:52:04,VALID,1008.95,VALID,0,VALID,104,VALID,0,VALID,23.3823,VALID,47,VALID,0.533594,
2012-05-29, 00:53:04,VALID,1008.98,VALID,0,VALID,104,VALID,0,VALID,23.4017,VALID,47,VALID,0.225,
2012-05-29, 00:54:04,VALID,1008.97,VALID,0,VALID,104,VALID,0,VALID,23.361,VALID,47,VALID,0,
2012-05-29, 00:55:04,VALID,1008.96,VALID,0,VALID,104,VALID,0,VALID,23.3823,VALID,47,VALID,0,
2012-05-29, 00:56:04,VALID,1008.95,VALID,0,VALID,104,VALID,0,VALID,23.3823,VALID,47,VALID,0.0210938,
2012-05-29, 00:57:04,VALID,1008.97,VALID,0,VALID,104,VALID,0,VALID,23.3415,VALID,47,VALID,0,
2012-05-29, 00:58:04,VALID,1008.94,VALID,0,VALID,104,VALID,0,VALID,23.3628,VALID,47,VALID,0,
2012-05-29, 00:59:04,VALID,1008.96,VALID,0,VALID,104,VALID,0,VALID,23.3628,VALID,47,VALID,0,
2012-05-29, 01:00:04,VALID,1008.96,VALID,0,VALID,104,VALID,0,VALID,23.3433,VALID,47,VALID,0,
2012-05-29, 01:01:04,VALID,1008.97,VALID,0,VALID,104,VALID,0,VALID,23.3433,VALID,47,VALID,0,
2012-05-29, 01:02:04,VALID,1008.97,VALID,0,VALID,104,VALID,0,VALID,23.3238,VALID,47,VALID,0.337891,
2012-05-29, 01:03:04,VALID,1008.97,VALID,0,VALID,104,VALID,0,VALID,23.3238,VALID,47,VALID,0,
2012-05-29, 01:04:04,VALID,1008.98,VALID,0,VALID,104,VALID,0,VALID,23.3238,VALID,47,VALID,0,
2012-05-29, 01:05:04,VALID,1008.97,VALID,0,VALID,104,VALID,0,VALID,23.2848,VALID,47,VALID,0.398828,
2012-05-29, 01:06:04,VALID,1008.99,VALID,0,VALID,104,VALID,0,VALID,23.2831,VALID,47,VALID,0,
2012-05-29, 01:07:04,VALID,1008.96,VALID,0,VALID,104,VALID,0,VALID,23.2848,VALID,46,VALID,0.382031,
2012-05-29, 01:08:04,VALID,1008.94,VALID,0,VALID,104,VALID,0.112112,VALID,23.2848,VALID,45,VALID,0.125,
2012-05-29, 01:09:04,VALID,1008.95,VALID,0,VALID,104,VALID,0,VALID,23.2654,VALID,45,VALID,0,
2012-05-29, 01:10:04,VALID,1008.96,VALID,0,VALID,104,VALID,0.112112,VALID,23.2441,VALID,45,VALID,0,
2012-05-29, 01:11:04,VALID,1008.94,VALID,0,VALID,104,VALID,0,VALID,23.2459,VALID,45,VALID,0,
2012-05-29, 01:12:04,VALID,1008.89,VALID,0,VALID,104,VALID,0,VALID,23.2246,VALID,45,VALID,0,
2012-05-29, 01:13:04,VALID,1008.89,VALID,0,VALID,104,VALID,0,VALID,23.2264,VALID,45,VALID,0,
2012-05-29, 01:14:04,VALID,1008.89,VALID,0,VALID,104,VALID,0,VALID,23.2264,VALID,45,VALID,0.148828,
2012-05-29, 01:15:04,VALID,1008.89,VALID,0,VALID,104,VALID,0,VALID,23.2069,VALID,45,VALID,0.00117188,
2012-05-29, 01:16:04,VALID,1008.9,VALID,0,VALID,104,VALID,0,VALID,23.2069,VALID,45,VALID,0.316797,
2012-05-29, 01:17:04,VALID,1008.89,VALID,0,VALID,104,VALID,0,VALID,23.1662,VALID,45,VALID,0.192188,
2012-05-29, 01:18:04,VALID,1008.89,VALID,0,VALID,104,VALID,0,VALID,23.1874,VALID,45,VALID,0.366406,
2012-05-29, 01:19:04,VALID,1008.9,VALID,0,VALID,104,VALID,0,VALID,23.1679,VALID,45,VALID,0.497266,
2012-05-29, 01:20:04,VALID,1008.89,VALID,0,VALID,104,VALID,0.112112,VALID,23.1679,VALID,45,VALID,0.249219,
2012-05-29, 01:21:04,VALID,1008.89,VALID,0,VALID,104,VALID,0.112112,VALID,23.1467,VALID,45,VALID,0.271484,
2012-05-29, 01:22:04,VALID,1008.87,VALID,0,VALID,104,VALID,0,VALID,23.1485,VALID,45,VALID,0.465234,
2012-05-29, 01:23:04,VALID,1008.86,VALID,0,VALID,104,VALID,0,VALID,23.1485,VALID,45,VALID,0.213281,
2012-05-29, 01:24:04,VALID,1008.85,VALID,0,VALID,104,VALID,0,VALID,23.129,VALID,45,VALID,0,
2012-05-29, 01:25:04,VALID,1008.86,VALID,0,VALID,104,VALID,0,VALID,23.1485,VALID,45,VALID,0,
2012-05-29, 01:26:04,VALID,1008.86,VALID,0,VALID,104,VALID,0,VALID,23.129,VALID,45,VALID,0.0582031,
2012-05-29, 01:27:04,VALID,1008.86,VALID,0,VALID,104,VALID,0.112112,VALID,23.129,VALID,45,VALID,0.00195313,
2012-05-29, 01:28:04,VALID,1008.85,VALID,0,VALID,104,VALID,0,VALID,23.129,VALID,45,VALID,0,
2012-05-29, 01:29:04,VALID,1008.86,VALID,0,VALID,104,VALID,0,VALID,23.129,VALID,45,VALID,0,
2012-05-29, 01:30:04,VALID,1008.86,VALID,0,VALID,104,VALID,0.112112,VALID,23.1077,VALID,45,VALID,0,
2012-05-29, 01:31:04,VALID,1008.84,VALID,0,VALID,104,VALID,0,VALID,23.1095,VALID,45,VALID,0,
2012-05-29, 01:32:04,VALID,1008.87,VALID,0,VALID,104,VALID,0,VALID,23.1077,VALID,45,VALID,0,
2012-05-29, 01:33:04,VALID,1008.84,VALID,0,VALID,104,VALID,0,VALID,23.129,VALID,45,VALID,0,
2012-05-29, 01:34:04,VALID,1008.85,VALID,0,VALID,104,VALID,0.112112,VALID,23.1077,VALID,45,VALID,0,
2012-05-29, 01:35:04,VALID,1008.82,VALID,0,VALID,104,VALID,0,VALID,23.1095,VALID,45,VALID,0,
2012-05-29, 01:36:04,VALID,1008.8,VALID,0,VALID,104,VALID,0.112112,VALID,23.0883,VALID,45,VALID,0,
2012-05-29, 01:37:04,VALID,1008.83,VALID,0,VALID,104,VALID,0,VALID,23.09,VALID,45,VALID,0.206641,
2012-05-29, 01:38:04,VALID,1008.82,VALID,0,VALID,104,VALID,0,VALID,23.09,VALID,45,VALID,0,
2012-05-29, 01:39:04,VALID,1008.79,VALID,0,VALID,104,VALID,0,VALID,23.09,VALID,45,VALID,0.275781,
2012-05-29, 01:40:04,VALID,1008.81,VALID,0,VALID,104,VALID,0,VALID,23.0493,VALID,45,VALID,0.146484,
2012-05-29, 01:41:04,VALID,1008.81,VALID,0,VALID,104,VALID,0,VALID,23.0705,VALID,45,VALID,0.0882813,
2012-05-29, 01:42:04,VALID,1008.81,VALID,0,VALID,104,VALID,0,VALID,23.0493,VALID,45,VALID,0,
2012-05-29, 01:43:04,VALID,1008.83,VALID,0,VALID,104,VALID,0,VALID,23.0705,VALID,45,VALID,0.172266,
2012-05-29, 01:44:04,VALID,1008.82,VALID,0,VALID,104,VALID,0.112112,VALID,23.0688,VALID,45,VALID,0,
2012-05-29, 01:45:04,VALID,1008.83,VALID,0,VALID,104,VALID,0,VALID,23.0705,VALID,45,VALID,0,
2012-05-29, 01:46:04,VALID,1008.83,VALID,0,VALID,104,VALID,0.112112,VALID,23.0705,VALID,45,VALID,0,
2012-05-29, 01:47:04,VALID,1008.81,VALID,0,VALID,104,VALID,0,VALID,23.0705,VALID,45,VALID,0.159766,
2012-05-29, 01:48:04,VALID,1008.82,VALID,0,VALID,104,VALID,0.112112,VALID,23.0511,VALID,45,VALID,0.295703,
2012-05-29, 01:49:04,VALID,1008.83,VALID,0,VALID,104,VALID,0,VALID,23.0705,VALID,45,VALID,0.134375,
2012-05-29, 01:50:04,VALID,1008.81,VALID,0,VALID,104,VALID,0,VALID,23.0705,VALID,45,VALID,0,
2012-05-29, 01:51:04,VALID,1008.8,VALID,0,VALID,104,VALID,0,VALID,23.0511,VALID,45,VALID,0,
2012-05-29, 01:52:04,VALID,1008.82,VALID,0,VALID,104,VALID,0,VALID,23.0493,VALID,45,VALID,0.221875,
2012-05-29, 01:53:04,VALID,1008.78,VALID,0,VALID,104,VALID,0.112112,VALID,23.0705,VALID,45,VALID,0,
2012-05-29, 01:54:04,VALID,1008.79,VALID,0,VALID,104,VALID,0,VALID,23.0493,VALID,45,VALID,0.05625,
2012-05-29, 01:55:04,VALID,1008.8,VALID,0,VALID,104,VALID,0,VALID,23.0705,VALID,45,VALID,0,
2012-05-29, 01:56:04,VALID,1008.78,VALID,0,VALID,104,VALID,0,VALID,23.0705,VALID,45,VALID,0,
2012-05-29, 01:57:04,VALID,1008.79,VALID,0,VALID,104,VALID,0,VALID,23.09,VALID,45,VALID,0,
2012-05-29, 01:58:04,VALID,1008.8,VALID,0,VALID,104,VALID,0,VALID,23.0705,VALID,45,VALID,0,
2012-05-29, 01:59:04,VALID,1008.78,VALID,0,VALID,104,VALID,0,VALID,23.0705,VALID,45,VALID,0,
2012-05-29, 02:00:04,VALID,1008.78,VALID,0,VALID,104,VALID,0,VALID,23.0705,VALID,45,VALID,0,
2012-05-29, 02:01:04,VALID,1008.78,VALID,0,VALID,104,VALID,0.112112,VALID,23.09,VALID,45,VALID,0,
2012-05-29, 02:02:04,VALID,1008.8,VALID,0,VALID,104,VALID,0,VALID,23.0705,VALID,45,VALID,0,
2012-05-29, 02:03:04,VALID,1008.8,VALID,0,VALID,104,VALID,0,VALID,23.0705,VALID,45,VALID,0,
2012-05-29, 02:04:04,VALID,1008.82,VALID,0,VALID,104,VALID,0,VALID,23.0705,VALID,45,VALID,0,
2012-05-29, 02:05:04,VALID,1008.83,VALID,0,VALID,104,VALID,0,VALID,23.0493,VALID,45,VALID,0,
2012-05-29, 02:06:04,VALID,1008.85,VALID,0,VALID,104,VALID,0,VALID,23.0688,VALID,45,VALID,0,
2012-05-29, 02:07:04,VALID,1008.83,VALID,0,VALID,104,VALID,0.112112,VALID,23.09,VALID,45,VALID,0.261328,
2012-05-29, 02:08:04,VALID,1008.85,VALID,0,VALID,104,VALID,0,VALID,23.0688,VALID,45,VALID,0.0902344,
2012-05-29, 02:09:04,VALID,1008.85,VALID,0,VALID,104,VALID,0,VALID,23.1095,VALID,45,VALID,0,
2012-05-29, 02:10:04,VALID,1008.86,VALID,0,VALID,104,VALID,0,VALID,23.1095,VALID,45,VALID,0,
2012-05-29, 02:11:04,VALID,1008.84,VALID,0,VALID,104,VALID,0,VALID,23.1077,VALID,45,VALID,0,
2012-05-29, 02:12:04,VALID,1008.85,VALID,0,VALID,104,VALID,0,VALID,23.1095,VALID,45,VALID,0,
2012-05-29, 02:13:04,VALID,1008.86,VALID,0,VALID,104,VALID,0,VALID,23.1095,VALID,45,VALID,0,
2012-05-29, 02:14:04,VALID,1008.85,VALID,0,VALID,104,VALID,0,VALID,23.09,VALID,45,VALID,0,
2012-05-29, 02:15:04,VALID,1008.86,VALID,0,VALID,104,VALID,0.112112,VALID,23.09,VALID,45,VALID,0,
2012-05-29, 02:16:04,VALID,1008.85,VALID,0,VALID,104,VALID,0,VALID,23.1095,VALID,45,VALID,0,
2012-05-29, 02:17:04,VALID,1008.87,VALID,0,VALID,104,VALID,0,VALID,23.0883,VALID,45,VALID,0,
2012-05-29, 02:18:04,VALID,1008.9,VALID,0,VALID,104,VALID,0,VALID,23.1095,VALID,45,VALID,0,
2012-05-29, 02:19:04,VALID,1008.89,VALID,0,VALID,104,VALID,0,VALID,23.09,VALID,45,VALID,0,
2012-05-29, 02:20:04,VALID,1008.88,VALID,0,VALID,104,VALID,0,VALID,23.0883,VALID,45,VALID,0,
2012-05-29, 02:21:04,VALID,1008.9,VALID,0,VALID,104,VALID,0,VALID,23.129,VALID,45,VALID,0,
2012-05-29, 02:22:04,VALID,1008.89,VALID,0,VALID,104,VALID,0,VALID,23.1485,VALID,45,VALID,0,
2012-05-29, 02:23:04,VALID,1008.9,VALID,0,VALID,104,VALID,0,VALID,23.1467,VALID,45,VALID,0.0160156,
2012-05-29, 02:24:04,VALID,1008.89,VALID,0,VALID,104,VALID,0.112112,VALID,23.1874,VALID,45,VALID,0,
2012-05-29, 02:25:04,VALID,1008.91,VALID,0,VALID,104,VALID,0.112112,VALID,23.1874,VALID,45,VALID,0,
2012-05-29, 02:26:04,VALID,1008.88,VALID,0,VALID,104,VALID,0.112112,VALID,23.1662,VALID,45,VALID,0,
2012-05-29, 02:27:04,VALID,1008.89,VALID,0,VALID,104,VALID,0,VALID,23.1679,VALID,45,VALID,0,
2012-05-29, 02:28:05,VALID,1008.91,VALID,0,VALID,104,VALID,0.112112,VALID,23.1467,VALID,45,VALID,0.342187,
2012-05-29, 02:29:05,VALID,1008.91,VALID,0,VALID,104,VALID,0.112112,VALID,23.1467,VALID,45,VALID,0.159375,
2012-05-29, 02:30:05,VALID,1008.97,VALID,0,VALID,104,VALID,0,VALID,23.1467,VALID,45,VALID,0,
2012-05-29, 02:31:05,VALID,1008.94,VALID,0,VALID,104,VALID,0.112112,VALID,23.1679,VALID,45,VALID,0.0402344,
2012-05-29, 02:32:05,VALID,1008.95,VALID,0,VALID,104,VALID,0.112112,VALID,23.1467,VALID,45,VALID,0.00234375,
2012-05-29, 02:33:05,VALID,1008.92,VALID,0,VALID,104,VALID,0.112112,VALID,23.1272,VALID,45,VALID,0.207422,
2012-05-29, 02:34:05,VALID,1008.92,VALID,0,VALID,104,VALID,0.112112,VALID,23.1485,VALID,45,VALID,0.244141,
2012-05-29, 02:35:05,VALID,1008.9,VALID,0,VALID,104,VALID,0,VALID,23.129,VALID,45,VALID,0.338672,
2012-05-29, 02:36:05,VALID,1008.9,VALID,0,VALID,104,VALID,0.112112,VALID,23.1077,VALID,45,VALID,0.160156,
2012-05-29, 02:37:05,VALID,1008.89,VALID,0,VALID,104,VALID,0,VALID,23.0883,VALID,45,VALID,0.246484,
2012-05-29, 02:38:05,VALID,1008.87,VALID,0,VALID,104,VALID,0.112112,VALID,23.0883,VALID,45,VALID,0,
2012-05-29, 02:39:05,VALID,1008.88,VALID,0,VALID,104,VALID,0.112112,VALID,23.1095,VALID,45,VALID,0.266406,
2012-05-29, 02:40:05,VALID,1008.86,VALID,0,VALID,104,VALID,0.112112,VALID,23.09,VALID,45,VALID,0.151172,
2012-05-29, 02:41:05,VALID,1008.85,VALID,0,VALID,104,VALID,0.112112,VALID,23.0688,VALID,45,VALID,0,
2012-05-29, 02:42:05,VALID,1008.83,VALID,0,VALID,104,VALID,0.112112,VALID,23.1095,VALID,45,VALID,0.225391,
2012-05-29, 02:43:05,VALID,1008.81,VALID,0,VALID,104,VALID,0.112112,VALID,23.0883,VALID,45,VALID,0.118359,
2012-05-29, 02:44:05,VALID,1008.83,VALID,0,VALID,104,VALID,0.112112,VALID,23.0883,VALID,45,VALID,0,
2012-05-29, 02:45:05,VALID,1008.84,VALID,0,VALID,104,VALID,0,VALID,23.0883,VALID,45,VALID,0,
2012-05-29, 02:46:05,VALID,1008.82,VALID,0,VALID,104,VALID,0.112112,VALID,23.1095,VALID,45,VALID,0.180469,
2012-05-29, 02:47:05,VALID,1008.85,VALID,0,VALID,104,VALID,0,VALID,23.0883,VALID,45,VALID,0,
2012-05-29, 02:48:05,VALID,1008.81,VALID,0,VALID,104,VALID,0.112112,VALID,23.1077,VALID,45,VALID,0.0566406,
2012-05-29, 02:49:05,VALID,1008.81,VALID,0,VALID,104,VALID,0,VALID,23.1077,VALID,45,VALID,0,
2012-05-29, 02:50:05,VALID,1008.81,VALID,0,VALID,104,VALID,0.112112,VALID,23.0883,VALID,45,VALID,0,
2012-05-29, 02:51:05,VALID,1008.78,VALID,0,VALID,104,VALID,0,VALID,23.1095,VALID,45,VALID,0,
2012-05-29, 02:52:05,VALID,1008.75,VALID,0,VALID,104,VALID,0.112112,VALID,23.0883,VALID,45,VALID,0,
2012-05-29, 02:53:05,VALID,1008.77,VALID,0,VALID,104,VALID,0.112112,VALID,23.0883,VALID,45,VALID,0,
2012-05-29, 02:54:05,VALID,1008.73,VALID,0,VALID,104,VALID,0.112112,VALID,23.0883,VALID,45,VALID,0,
2012-05-29, 02:55:05,VALID,1008.74,VALID,0,VALID,104,VALID,0,VALID,23.0883,VALID,45,VALID,0,
2012-05-29, 02:56:05,VALID,1008.76,VALID,0,VALID,104,VALID,0.112112,VALID,23.0883,VALID,45,VALID,0,
2012-05-29, 02:57:05,VALID,1008.74,VALID,0,VALID,104,VALID,0.112112,VALID,23.0883,VALID,45,VALID,0,
2012-05-29, 02:58:05,VALID,1008.77,VALID,0,VALID,104,VALID,0.112112,VALID,23.0688,VALID,45,VALID,0,
2012-05-29, 02:59:05,VALID,1008.79,VALID,0,VALID,104,VALID,0.112112,VALID,23.0883,VALID,45,VALID,0,
2012-05-29, 03:00:05,VALID,1008.75,VALID,0,VALID,104,VALID,0,VALID,23.0883,VALID,45,VALID,0,
2012-05-29, 03:01:05,VALID,1008.76,VALID,0,VALID,104,VALID,0.112112,VALID,23.0883,VALID,45,VALID,0.0222656,
2012-05-29, 03:02:05,VALID,1008.75,VALID,0,VALID,104,VALID,0.112112,VALID,23.1095,VALID,45,VALID,0.211328,
2012-05-29, 03:03:05,VALID,1008.75,VALID,0,VALID,104,VALID,0.112112,VALID,23.0883,VALID,45,VALID,0.160156,
2012-05-29, 03:04:05,VALID,1008.74,VALID,0,VALID,104,VALID,0.112112,VALID,23.0688,VALID,45,VALID,0.084375,
2012-05-29, 03:05:05,VALID,1008.75,VALID,0,VALID,104,VALID,0,VALID,23.0688,VALID,45,VALID,0.000390625,
2012-05-29, 03:06:05,VALID,1008.74,VALID,0,VALID,104,VALID,0.112112,VALID,23.0883,VALID,45,VALID,0,
2012-05-29, 03:07:05,VALID,1008.78,VALID,0,VALID,104,VALID,0.112112,VALID,23.0883,VALID,45,VALID,0,
2012-05-29, 03:08:05,VALID,1008.79,VALID,0,VALID,104,VALID,0.112112,VALID,23.0883,VALID,45,VALID,0,
2012-05-29, 03:09:05,VALID,1008.79,VALID,0,VALID,104,VALID,0.112112,VALID,23.0883,VALID,45,VALID,0,
2012-05-29, 03:10:05,VALID,1008.81,VALID,0,VALID,104,VALID,0.112112,VALID,23.0883,VALID,45,VALID,0,
2012-05-29, 03:11:05,VALID,1008.83,VALID,0,VALID,104,VALID,0,VALID,23.0688,VALID,45,VALID,0,
2012-05-29, 03:12:05,VALID,1008.81,VALID,0,VALID,104,VALID,0,VALID,23.0705,VALID,45,VALID,0,
2012-05-29, 03:13:05,VALID,1008.82,VALID,0,VALID,104,VALID,0.112112,VALID,23.0688,VALID,45,VALID,0,
2012-05-29, 03:14:05,VALID,1008.84,VALID,0,VALID,104,VALID,0.112112,VALID,23.0493,VALID,45,VALID,0,
2012-05-29, 03:15:05,VALID,1008.84,VALID,0,VALID,104,VALID,0.112112,VALID,23.0493,VALID,45,VALID,0,
2012-05-29, 03:16:05,VALID,1008.87,VALID,0,VALID,104,VALID,0.112112,VALID,23.0493,VALID,45,VALID,0,
2012-05-29, 03:17:05,VALID,1008.86,VALID,0,VALID,104,VALID,0.112112,VALID,23.0493,VALID,45,VALID,0,
2012-05-29, 03:18:05,VALID,1008.89,VALID,0,VALID,104,VALID,0.112112,VALID,23.09,VALID,45,VALID,0,
2012-05-29, 03:19:05,VALID,1008.89,VALID,0,VALID,104,VALID,0.112112,VALID,23.09,VALID,45,VALID,0,
2012-05-29, 03:20:05,VALID,1008.86,VALID,0,VALID,104,VALID,0.112112,VALID,23.09,VALID,45,VALID,0,
2012-05-29, 03:21:05,VALID,1008.84,VALID,0,VALID,104,VALID,0.112112,VALID,23.09,VALID,45,VALID,0,
2012-05-29, 03:22:05,VALID,1008.83,VALID,0,VALID,104,VALID,0,VALID,23.0688,VALID,45,VALID,0,
2012-05-29, 03:23:05,VALID,1008.81,VALID,0,VALID,104,VALID,0,VALID,23.0705,VALID,45,VALID,0,
2012-05-29, 03:24:05,VALID,1008.79,VALID,0,VALID,104,VALID,0,VALID,23.0493,VALID,45,VALID,0,
2012-05-29, 03:25:05,VALID,1008.79,VALID,0,VALID,104,VALID,0,VALID,23.09,VALID,45,VALID,0.0222656,
2012-05-29, 03:26:05,VALID,1008.81,VALID,0,VALID,104,VALID,0,VALID,23.09,VALID,45,VALID,0.171484,
2012-05-29, 03:27:05,VALID,1008.8,VALID,0,VALID,104,VALID,0,VALID,23.09,VALID,45,VALID,0.0265625,
2012-05-29, 03:28:05,VALID,1008.79,VALID,0,VALID,104,VALID,0.112112,VALID,23.1095,VALID,45,VALID,0.0714844,
2012-05-29, 03:29:05,VALID,1008.8,VALID,0,VALID,104,VALID,0.112112,VALID,23.1095,VALID,45,VALID,0,
2012-05-29, 03:30:05,VALID,1008.77,VALID,0,VALID,104,VALID,0.112112,VALID,23.1095,VALID,45,VALID,0.159766,
2012-05-29, 03:31:05,VALID,1008.75,VALID,0,VALID,104,VALID,0.112112,VALID,23.1077,VALID,45,VALID,0.358984,
2012-05-29, 03:32:05,VALID,1008.73,VALID,0,VALID,104,VALID,0,VALID,23.129,VALID,45,VALID,0.533203,
2012-05-29, 03:33:05,VALID,1008.73,VALID,0,VALID,104,VALID,0,VALID,23.129,VALID,45,VALID,0.471875,
2012-05-29, 03:34:05,VALID,1008.73,VALID,0,VALID,104,VALID,0,VALID,23.1485,VALID,51,VALID,0.5,
2012-05-29, 03:35:05,VALID,1008.71,VALID,0,VALID,104,VALID,0,VALID,23.1467,VALID,51,VALID,0.405859,
2012-05-29, 03:36:05,VALID,1008.71,VALID,0,VALID,104,VALID,0.112112,VALID,23.1874,VALID,52,VALID,0.564062,
2012-05-29, 03:37:05,VALID,1008.73,VALID,0,VALID,104,VALID,0,VALID,23.2069,VALID,83,VALID,0.375391,
2012-05-29, 03:38:05,VALID,1008.72,VALID,0,VALID,104,VALID,0,VALID,23.2069,VALID,83,VALID,0.255078,
2012-05-29, 03:39:05,VALID,1008.72,VALID,0,VALID,104,VALID,0,VALID,23.2264,VALID,83,VALID,0.141797,
2012-05-29, 03:40:05,VALID,1008.73,VALID,0,VALID,104,VALID,0,VALID,23.2459,VALID,83,VALID,0,
2012-05-29, 03:41:05,VALID,1008.76,VALID,0,VALID,104,VALID,0,VALID,23.2246,VALID,83,VALID,0,
2012-05-29, 03:42:05,VALID,1008.74,VALID,0,VALID,104,VALID,0,VALID,23.2459,VALID,83,VALID,0,
2012-05-29, 03:43:05,VALID,1008.73,VALID,0,VALID,104,VALID,0,VALID,23.2051,VALID,83,VALID,0,
2012-05-29, 03:44:05,VALID,1008.76,VALID,0,VALID,104,VALID,0,VALID,23.2246,VALID,83,VALID,0,
2012-05-29, 03:45:05,VALID,1008.78,VALID,0,VALID,104,VALID,0,VALID,23.2459,VALID,83,VALID,0,
2012-05-29, 03:46:05,VALID,1008.81,VALID,0,VALID,104,VALID,0.112112,VALID,23.2264,VALID,83,VALID,0,
2012-05-29, 03:47:05,VALID,1008.8,VALID,0,VALID,104,VALID,0,VALID,23.2069,VALID,83,VALID,0.0425781,
2012-05-29, 03:48:05,VALID,1008.82,VALID,0,VALID,104,VALID,0,VALID,23.2459,VALID,83,VALID,0.0953125,
2012-05-29, 03:49:05,VALID,1008.84,VALID,0,VALID,104,VALID,0,VALID,23.2264,VALID,83,VALID,0,
2012-05-29, 03:50:05,VALID,1008.86,VALID,0,VALID,104,VALID,0,VALID,23.2264,VALID,83,VALID,0,
2012-05-29, 03:51:05,VALID,1008.87,VALID,0,VALID,104,VALID,0,VALID,23.2459,VALID,83,VALID,0,
2012-05-29, 03:52:05,VALID,1008.88,VALID,0,VALID,104,VALID,0,VALID,23.2264,VALID,83,VALID,0,
2012-05-29, 03:53:05,VALID,1008.92,VALID,0,VALID,104,VALID,0,VALID,23.2264,VALID,83,VALID,0,
2012-05-29, 03:54:05,VALID,1008.94,VALID,0,VALID,104,VALID,0,VALID,23.2069,VALID,83,VALID,0,
2012-05-29, 03:55:05,VALID,1008.92,VALID,0,VALID,104,VALID,0,VALID,23.2069,VALID,83,VALID,0,
2012-05-29, 03:56:05,VALID,1008.95,VALID,0,VALID,104,VALID,0,VALID,23.2069,VALID,83,VALID,0,
2012-05-29, 03:57:05,VALID,1008.97,VALID,0,VALID,104,VALID,0,VALID,23.1857,VALID,83,VALID,0,
2012-05-29, 03:58:05,VALID,1008.97,VALID,0,VALID,104,VALID,0,VALID,23.2069,VALID,83,VALID,0,
2012-05-29, 03:59:05,VALID,1008.98,VALID,0,VALID,104,VALID,0,VALID,23.2069,VALID,83,VALID,0,
2012-05-29, 04:00:05,VALID,1008.99,VALID,0,VALID,104,VALID,0,VALID,23.2069,VALID,83,VALID,0,
2012-05-29, 04:01:05,VALID,1009.01,VALID,0,VALID,104,VALID,0,VALID,23.2069,VALID,83,VALID,0,